Radiation Dose at Monitoring Post of Fukushima Daini Nuclear Power Station
Date,Time,MP-1(microSv/h),MP-2(microSv/h),MP-3(microSv/h),MP-4(microSv/h),MP-5(microSv/h),MP-6(microSv/h),MP-7(microSv/h),Wind Direction,Wind Velocity(m/s),Rain
2020/06/04,00:00,0.173,0.158,0.262,0.249,0.247,0.139,0.084,north-northwest,3.1,No
2020/06/04,00:10,0.173,0.158,0.259,0.249,0.250,0.138,0.084,north-northwest,3.7,No
2020/06/04,00:20,0.173,0.159,0.261,0.250,0.248,0.139,0.084,north-northwest,4.6,No
2020/06/04,00:30,0.174,0.159,0.261,0.249,0.249,0.138,0.084,north,5.0,No
2020/06/04,00:40,0.173,0.158,0.261,0.249,0.247,0.139,0.085,north,3.1,No
2020/06/04,00:50,0.173,0.158,0.260,0.250,0.249,0.138,0.085,north-northwest,5.8,No
2020/06/04,01:00,0.173,0.158,0.260,0.251,0.246,0.139,0.085,north-northwest,6.1,No
2020/06/04,01:10,0.173,0.158,0.258,0.249,0.248,0.138,0.084,north-northwest,5.1,No
2020/06/04,01:20,0.174,0.158,0.262,0.250,0.246,0.138,0.084,north-northwest,4.1,No
2020/06/04,01:30,0.172,0.157,0.258,0.248,0.248,0.139,0.084,north-northwest,4.2,No
2020/06/04,01:40,0.173,0.159,0.261,0.249,0.248,0.138,0.084,north-northwest,3.4,No
2020/06/04,01:50,0.172,0.158,0.259,0.249,0.247,0.139,0.084,north,2.7,No
2020/06/04,02:00,0.173,0.158,0.260,0.250,0.247,0.137,0.085,north,3.5,No
2020/06/04,02:10,0.172,0.158,0.257,0.247,0.247,0.138,0.084,north,3.4,No
2020/06/04,02:20,0.173,0.157,0.259,0.249,0.249,0.138,0.083,north,3.6,No
2020/06/04,02:30,0.172,0.157,0.257,0.247,0.245,0.137,0.084,north-northwest,4.0,No
2020/06/04,02:40,0.173,0.158,0.260,0.248,0.248,0.137,0.082,north-northwest,2.7,No
2020/06/04,02:50,0.171,0.158,0.259,0.246,0.245,0.137,0.083,north,3.0,No
2020/06/04,03:00,0.172,0.159,0.258,0.249,0.249,0.138,0.083,north,2.3,No
2020/06/04,03:10,0.173,0.158,0.260,0.246,0.247,0.138,0.084,north,2.2,No
2020/06/04,03:20,0.174,0.157,0.260,0.250,0.247,0.138,0.084,north-northwest,1.7,No
2020/06/04,03:30,0.172,0.158,0.259,0.247,0.249,0.138,0.083,north,2.5,No
2020/06/04,03:40,0.173,0.159,0.259,0.249,0.247,0.137,0.083,north-northwest,3.0,No
2020/06/04,03:50,0.172,0.158,0.260,0.246,0.248,0.137,0.084,north-northwest,2.5,No
2020/06/04,04:00,0.172,0.158,0.259,0.248,0.246,0.137,0.084,north-northwest,3.2,No
2020/06/04,04:10,0.173,0.158,0.259,0.248,0.249,0.138,0.084,north-northwest,2.6,No
2020/06/04,04:20,0.172,0.158,0.259,0.247,0.246,0.137,0.083,north-northwest,2.6,No
2020/06/04,04:30,0.172,0.157,0.260,0.247,0.248,0.137,0.084,north-northwest,2.8,No
2020/06/04,04:40,0.173,0.158,0.257,0.248,0.248,0.138,0.084,north-northwest,3.5,No
2020/06/04,04:50,0.173,0.158,0.260,0.249,0.248,0.137,0.084,northwest,2.8,No
2020/06/04,05:00,0.172,0.158,0.259,0.248,0.248,0.138,0.084,north-northwest,2.3,No
2020/06/04,05:10,0.173,0.158,0.262,0.250,0.248,0.138,0.085,west-northwest,2.3,No
2020/06/04,05:20,0.174,0.158,0.258,0.249,0.249,0.138,0.085,north-northwest,2.1,No
2020/06/04,05:30,0.174,0.159,0.262,0.251,0.248,0.139,0.085,northwest,2.1,No
2020/06/04,05:40,0.173,0.160,0.260,0.247,0.251,0.138,0.085,north,1.3,No
2020/06/04,05:50,0.173,0.158,0.261,0.249,0.246,0.139,0.084,east-northeast,0.9,No
2020/06/04,06:00,0.172,0.159,0.259,0.249,0.248,0.137,0.084,-,CALM,No
2020/06/04,06:10,0.175,0.157,0.262,0.249,0.248,0.138,0.085,north-northeast,0.9,No
2020/06/04,06:20,0.173,0.160,0.260,0.247,0.247,0.138,0.083,north-northeast,0.9,No
2020/06/04,06:30,0.172,0.157,0.260,0.249,0.248,0.138,0.084,north,1.1,No
2020/06/04,06:40,0.174,0.158,0.262,0.249,0.244,0.138,0.084,north-northwest,1.7,No
2020/06/04,06:50,0.171,0.159,0.257,0.247,0.248,0.137,0.083,northwest,1.9,No
2020/06/04,07:00,0.173,0.158,0.260,0.250,0.247,0.138,0.084,north-northwest,1.4,No
2020/06/04,07:10,0.172,0.158,0.260,0.248,0.245,0.137,0.085,north,1.1,No
2020/06/04,07:20,0.173,0.157,0.258,0.248,0.249,0.137,0.083,north-northwest,0.9,No
2020/06/04,07:30,0.175,0.159,0.260,0.248,0.245,0.137,0.084,north-northeast,0.7,No
2020/06/04,07:40,0.172,0.160,0.258,0.246,0.246,0.137,0.083,north,1.0,No
2020/06/04,07:50,0.173,0.158,0.259,0.249,0.248,0.138,0.084,north-northeast,0.6,No
2020/06/04,08:00,0.174,0.159,0.261,0.247,0.246,0.139,0.085,-,CALM,No
2020/06/04,08:10,0.173,0.159,0.259,0.247,0.243,0.137,0.084,-,CALM,No
2020/06/04,08:20,0.173,0.157,0.256,0.245,0.245,0.138,0.084,east-northeast,0.7,No
2020/06/04,08:30,0.172,0.157,0.258,0.247,0.247,0.139,0.083,east,0.8,No
2020/06/04,08:40,0.173,0.158,0.259,0.250,0.248,0.138,0.084,east-northeast,1.4,No
2020/06/04,08:50,0.173,0.157,0.259,0.247,0.246,0.138,0.083,east,1.8,No
2020/06/04,09:00,0.172,0.157,0.255,0.247,0.246,0.137,0.083,east-southeast,2.3,No
2020/06/04,09:10,0.171,0.159,0.257,0.246,0.244,0.137,0.082,east,1.7,No
2020/06/04,09:20,0.174,0.157,0.260,0.245,0.244,0.137,0.083,east-southeast,2.0,No
2020/06/04,09:30,0.173,0.156,0.261,0.246,0.248,0.139,0.084,east-southeast,2.2,No
2020/06/04,09:40,0.171,0.157,0.258,0.245,0.249,0.138,0.083,east-southeast,1.8,No
2020/06/04,09:50,0.173,0.158,0.258,0.245,0.246,0.137,0.084,east-southeast,2.3,No
2020/06/04,10:00,0.172,0.158,0.257,0.246,0.246,0.137,0.083,east-southeast,1.8,No
2020/06/04,10:10,0.171,0.157,0.259,0.247,0.245,0.137,0.083,east-southeast,1.6,No
2020/06/04,10:20,0.170,0.157,0.261,0.252,0.245,0.137,0.083,east,2.0,No
2020/06/04,10:30,0.173,0.157,0.260,0.249,0.245,0.137,0.083,east-northeast,2.1,No
2020/06/04,10:40,0.173,0.159,0.259,0.248,0.245,0.138,0.084,east-northeast,2.4,No
2020/06/04,10:50,0.172,0.157,0.257,0.248,0.244,0.139,0.083,east-northeast,2.6,No
2020/06/04,11:00,0.170,0.157,0.257,0.248,0.245,0.138,0.084,east-northeast,2.5,No
2020/06/04,11:10,0.172,0.156,0.259,0.247,0.248,0.136,0.083,east,1.8,No
2020/06/04,11:20,0.174,0.158,0.262,0.246,0.249,0.138,0.082,east-southeast,1.6,No
2020/06/04,11:30,0.172,0.159,0.262,0.246,0.248,0.138,0.084,east-southeast,1.9,No
2020/06/04,11:40,0.171,0.158,0.260,0.247,0.247,0.137,0.084,east-southeast,1.5,No
2020/06/04,11:50,0.171,0.157,0.259,0.251,0.246,0.137,0.084,east-southeast,2.6,No
2020/06/04,12:00,0.172,0.157,0.259,0.251,0.246,0.138,0.083,southeast,1.6,No
2020/06/04,12:10,0.172,0.158,0.258,0.250,0.244,0.139,0.082,east-southeast,2.3,No
2020/06/04,12:20,0.172,0.157,0.259,0.248,0.245,0.138,0.083,east-southeast,2.7,No
2020/06/04,12:30,0.172,0.157,0.258,0.248,0.245,0.138,0.083,southeast,3.3,No
2020/06/04,12:40,0.173,0.158,0.259,0.247,0.244,0.137,0.083,southeast,3.9,No
2020/06/04,12:50,0.174,0.157,0.261,0.248,0.246,0.137,0.083,southeast,4.1,No
2020/06/04,13:00,0.171,0.159,0.263,0.248,0.245,0.137,0.082,southeast,5.1,No
2020/06/04,13:10,0.171,0.158,0.263,0.248,0.246,0.138,0.082,southeast,5.4,No
2020/06/04,13:20,0.173,0.158,0.261,0.248,0.246,0.138,0.083,southeast,6.2,No
2020/06/04,13:30,0.173,0.157,0.260,0.249,0.247,0.139,0.083,south-southeast,5.8,No
2020/06/04,13:40,0.172,0.156,0.259,0.250,0.246,0.138,0.084,south-southeast,6.6,No
2020/06/04,13:50,0.171,0.158,0.258,0.252,0.247,0.137,0.083,south-southeast,6.8,No
2020/06/04,14:00,0.172,0.157,0.262,0.250,0.249,0.138,0.083,south-southeast,8.2,No
2020/06/04,14:10,0.174,0.159,0.264,0.249,0.248,0.138,0.083,south-southeast,8.7,No
2020/06/04,14:20,0.173,0.158,0.261,0.248,0.249,0.138,0.082,south-southeast,8.7,No
2020/06/04,14:30,0.174,0.157,0.261,0.250,0.247,0.139,0.083,south-southeast,9.8,No
2020/06/04,14:40,0.172,0.159,0.259,0.251,0.246,0.138,0.084,south-southeast,9.0,No
2020/06/04,14:50,0.172,0.159,0.259,0.251,0.246,0.137,0.083,south-southeast,10.6,No
2020/06/04,15:00,0.172,0.158,0.260,0.250,0.247,0.138,0.083,south-southeast,9.8,No
2020/06/04,15:10,0.171,0.158,0.263,0.248,0.246,0.137,0.083,south-southeast,10.7,No
2020/06/04,15:20,0.171,0.157,0.263,0.248,0.246,0.139,0.084,south-southeast,10.6,No
2020/06/04,15:30,0.171,0.159,0.261,0.252,0.246,0.139,0.084,south,9.5,No
2020/06/04,15:40,0.173,0.160,0.261,0.251,0.247,0.138,0.083,south-southeast,9.0,No
2020/06/04,15:50,0.174,0.158,0.259,0.250,0.250,0.138,0.084,south,9.8,No
2020/06/04,16:00,0.173,0.159,0.263,0.250,0.250,0.139,0.084,south,10.1,No
2020/06/04,16:10,0.171,0.159,0.265,0.253,0.247,0.139,0.083,south,9.2,No
2020/06/04,16:20,0.172,0.158,0.261,0.251,0.246,0.138,0.084,south,9.8,No
2020/06/04,16:30,0.173,0.158,0.263,0.250,0.247,0.138,0.084,south,9.0,No
2020/06/04,16:40,0.174,0.160,0.264,0.253,0.247,0.138,0.084,south,8.6,No
2020/06/04,16:50,0.173,0.159,0.261,0.251,0.251,0.140,0.084,south,9.6,No
2020/06/04,17:00,0.172,0.158,0.261,0.250,0.250,0.139,0.084,south,9.5,No
2020/06/04,17:10,0.175,0.159,0.263,0.253,0.247,0.138,0.084,south,9.2,No
2020/06/04,17:20,0.174,0.158,0.260,0.250,0.247,0.140,0.084,south,8.2,No
2020/06/04,17:30,0.173,0.160,0.261,0.251,0.250,0.138,0.083,south,8.4,No
2020/06/04,17:40,0.174,0.160,0.263,0.253,0.248,0.137,0.085,south,9.5,No
2020/06/04,17:50,0.175,0.159,0.262,0.250,0.246,0.139,0.084,south,8.1,No
2020/06/04,18:00,0.173,0.160,0.260,0.250,0.248,0.138,0.084,south,8.1,No
2020/06/04,18:10,0.173,0.159,0.264,0.252,0.248,0.138,0.084,south,8.7,No
2020/06/04,18:20,0.175,0.159,0.263,0.249,0.246,0.140,0.085,south,8.4,No
2020/06/04,18:30,0.173,0.160,0.262,0.252,0.249,0.138,0.083,south,9.2,No
2020/06/04,18:40,0.172,0.158,0.264,0.252,0.249,0.138,0.085,south,8.8,No
2020/06/04,18:50,0.175,0.159,0.261,0.250,0.247,0.138,0.083,south,10.0,No
2020/06/04,19:00,0.173,0.159,0.263,0.252,0.249,0.139,0.085,south,9.0,No
2020/06/04,19:10,0.173,0.159,0.264,0.250,0.248,0.138,0.085,south,9.3,No
2020/06/04,19:20,0.174,0.160,0.262,0.251,0.248,0.138,0.083,south-southeast,9.2,No
2020/06/04,19:30,0.173,0.158,0.264,0.251,0.249,0.138,0.084,south,8.4,No
2020/06/04,19:40,0.174,0.159,0.262,0.250,0.248,0.138,0.084,south,8.4,No
2020/06/04,19:50,0.173,0.159,0.263,0.253,0.251,0.137,0.084,south,9.0,No
2020/06/04,20:00,0.173,0.159,0.263,0.250,0.248,0.138,0.084,south,7.6,No
2020/06/04,20:10,0.174,0.160,0.261,0.251,0.250,0.139,0.084,south-southeast,7.5,No
2020/06/04,20:20,0.173,0.159,0.263,0.251,0.248,0.138,0.084,south,5.5,No
2020/06/04,20:30,0.175,0.159,0.260,0.251,0.247,0.139,0.084,south,4.7,No
2020/06/04,20:40,0.173,0.158,0.265,0.252,0.248,0.138,0.084,south-southwest,3.2,No
2020/06/04,20:50,0.174,0.160,0.263,0.249,0.248,0.138,0.083,south,1.8,No
2020/06/04,21:00,0.174,0.159,0.263,0.253,0.248,0.139,0.084,south,4.4,No
2020/06/04,21:10,0.173,0.160,0.264,0.250,0.248,0.138,0.084,south,6.5,No
2020/06/04,21:20,0.174,0.158,0.261,0.251,0.247,0.138,0.083,south,6.9,No
2020/06/04,21:30,0.172,0.159,0.264,0.252,0.249,0.138,0.084,south,7.5,No
2020/06/04,21:40,0.174,0.158,0.262,0.249,0.246,0.138,0.084,south,7.0,No
2020/06/04,21:50,0.173,0.160,0.264,0.252,0.250,0.139,0.084,south,7.2,No
2020/06/04,22:00,0.172,0.159,0.261,0.249,0.248,0.138,0.084,south,6.4,No
2020/06/04,22:10,0.175,0.159,0.262,0.251,0.247,0.139,0.084,south,6.3,No
2020/06/04,22:20,0.172,0.158,0.263,0.251,0.249,0.138,0.085,south,5.3,No
2020/06/04,22:30,0.175,0.159,0.262,0.251,0.247,0.139,0.084,south,4.4,No
2020/06/04,22:40,0.173,0.159,0.264,0.251,0.250,0.138,0.084,south,4.1,No
2020/06/04,22:50,0.173,0.159,0.263,0.251,0.249,0.137,0.083,south,3.3,No
2020/06/04,23:00,0.174,0.160,0.263,0.251,0.249,0.139,0.084,south,4.9,No
2020/06/04,23:10,0.173,0.159,0.262,0.250,0.249,0.139,0.084,south,6.0,No
2020/06/04,23:20,0.175,0.160,0.263,0.253,0.247,0.138,0.085,south,5.3,No
2020/06/04,23:30,0.174,0.159,0.263,0.251,0.250,0.139,0.084,south,5.7,No
2020/06/04,23:40,0.174,0.159,0.262,0.252,0.248,0.138,0.084,south,6.3,No
2020/06/04,23:50,0.174,0.158,0.263,0.252,0.250,0.140,0.084,south,4.9,No
